Wind_Speed
66 70 72 72 69 69 74 81 85 89 89 88 89 86 84 82 78 75 69 66 62 60 57 48 46 41 40 37 39 31 31 32 26 21 16 15 19 19 21 23 17 24 27 22 23 22 22
65 64 66 71 71 71 71 67 74 82 86 87 87 87 88 85 81 79 74 71 68 65 60 57 51 45 42 40 40 39 37 40 32 26 20 17 19 17 17 13 14 15 26 23 19 18 20
64 62 65 66 67 70 71 71 70 70 74 83 83 88 86 85 81 81 78 73 72 70 66 60 57 52 48 44 46 45 39 40 39 31 25 22 19 18 15 13 10 14 22 21 17 12 17
69 66 65 63 64 65 68 72 69 70 69 69 73 81 87 87 87 86 82 80 74 72 69 66 61 53 49 47 47 42 43 43 42 35 30 23 24 19 16 14 13 7 19 20 18 10 15
71 71 69 67 65 62 63 66 68 68 68 73 68 68 72 80 86 86 84 83 76 76 71 65 62 60 53 51 52 48 45 40 38 33 30 28 27 24 19 18 13 11 17 20 13 7 5
76 74 73 71 70 68 64 63 64 66 70 70 75 68 67 66 70 75 77 85 78 76 74 71 66 61 57 57 58 56 50 44 43 38 34 32 30 31 26 15 13 16 19 20 9 8 5
83 82 78 75 73 71 71 67 65 64 65 68 70 73 66 63 62 65 68 70 75 73 76 71 69 65 62 58 60 55 51 43 42 39 37 38 36 34 30 17 23 20 18 19 12 11 10
88 86 86 82 80 77 74 72 71 67 66 65 65 69 71 69 59 55 57 60 62 66 67 72 66 67 62 62 61 57 56 48 46 42 42 38 39 37 33 28 24 19 18 21 17 15 12
95 93 91 90 86 82 81 79 74 74 70 68 66 64 68 70 74 62 51 54 59 60 61 62 62 62 62 61 61 57 54 52 52 47 41 39 42 42 36 33 27 22 23 23 22 20 18
103 98 97 95 91 88 85 84 82 78 75 74 71 66 64 67 67 70 67 49 51 56 59 59 58 59 59 58 59 58 54 54 52 52 48 48 44 47 44 37 34 29 27 26 25 25 24
106 104 102 97 95 94 88 84 88 86 83 77 75 73 67 64 66 66 64 64 47 50 54 55 54 57 54 54 57 55 56 57 55 53 48 47 46 49 47 44 38 28 30 30 33 31 29
115 112 107 105 104 100 97 91 89 88 88 86 81 77 75 68 65 63 61 63 60 47 49 50 53 54 50 49 53 56 56 56 55 53 53 53 51 52 51 48 40 37 31 36 37 36 37
123 120 116 113 109 107 103 100 97 94 90 88 89 82 78 77 70 66 61 59 59 50 47 48 51 50 47 45 47 53 57 58 59 58 59 56 54 51 53 51 43 38 37 39 41 40 40
119 120 119 121 117 115 108 104 103 99 96 92 89 87 81 79 76 71 68 60 56 53 51 49 47 48 46 42 46 54 59 63 62 63 62 56 51 51 51 54 52 42 42 35 45 46 43
119 120 119 118 119 119 116 114 109 105 103 95 96 92 90 85 80 76 71 64 54 53 55 54 47 43 45 44 44 47 51 58 62 62 61 56 51 50 50 50 50 48 41 38 40 37 47
116 117 118 121 122 118 117 115 110 109 107 106 103 98 93 93 85 83 76 66 58 56 57 55 53 48 45 45 45 43 41 49 56 61 63 59 52 54 53 50 51 51 51 43 39 38 36
112 112 115 116 113 114 114 112 111 110 108 106 109 107 99 97 95 87 81 69 64 61 60 57 54 52 50 48 46 45 42 42 46 51 54 54 58 58 55 49 51 52 53 51 47 39 37
109 109 110 111 112 113 109 111 112 110 111 110 109 109 107 104 102 94 80 75 71 65 61 59 58 56 55 52 49 49 47 44 43 47 51 53 59 60 61 54 48 50 51 53 54 51 41
97 99 104 104 104 106 107 105 104 109 109 111 109 108 110 111 104 98 85 80 77 69 63 63 60 58 55 53 52 51 50 48 48 48 50 53 55 56 60 61 56 57 47 52 58 58 56
94 93 94 95 96 98 99 100 101 106 105 103 104 107 108 112 106 101 91 86 81 73 67 65 61 59 58 56 56 54 52 51 52 51 50 49 49 52 53 56 59 60 55 55 56 55 60
85 88 88 88 89 91 90 90 92 94 96 92 93 99 103 105 102 103 99 88 83 78 70 66 63 60 58 56 55 54 53 51 50 51 51 52 49 49 56 58 62 62 64 58 57 59 56
78 80 82 83 81 78 84 84 84 83 85 84 90 97 102 102 102 107 102 92 87 82 74 67 65 64 62 60 56 52 51 50 49 50 50 51 48 48 48 53 58 61 62 64 60 60 60
71 73 73 75 74 74 72 75 77 78 79 84 88 95 101 103 104 106 102 92 86 84 79 72 71 65 62 60 56 53 50 51 46 45 45 48 46 46 46 45 49 53 60 58 59 63 62
66 69 69 69 70 70 70 71 76 76 76 85 91 96 101 105 104 103 101 93 91 87 82 77 71 66 62 60 57 54 53 51 48 41 41 42 42 42 41 40 43 46 48 50 53 55 56
63 64 66 67 67 67 67 71 71 74 79 85 91 94 101 102 101 106 103 100 97 92 86 79 73 67 62 60 59 58 55 51 45 39 38 37 38 37 38 37 41 40 39 40 42 45 47
62 63 64 65 67 67 68 69 71 72 79 84 90 92 95 96 102 105 106 103 97 93 87 82 76 68 62 60 58 57 53 50 45 41 38 36 35 35 35 36 37 35 38 40 41 42 44
60 61 63 65 65 66 67 70 71 74 77 82 88 90 92 95 103 107 106 103 96 94 87 83 79 70 62 59 59 59 55 52 45 44 41 38 36 35 32 33 35 35 36 38 39 42 46
57 59 63 65 66 67 68 69 71 74 77 83 85 88 88 97 106 104 106 103 97 91 89 84 79 70 63 59 59 60 57 53 48 46 43 39 37 36 34 34 34 36 37 39 41 42 44
55 58 59 61 65 68 69 70 72 75 76 81 84 86 90 99 106 104 104 99 92 92 91 85 81 72 65 63 61 60 57 53 51 46 42 38 38 37 35 33 31 33 33 34 37 42 44
Wind_Direction
243 245 244 243 240 238 236 238 238 241 244 244 246 244 247 250 249 249 251 251 255 256 260 259 261 268 267 278 274 276 291 298 293 288 291 294 314 335 348 352 357 355 358 1 7 15 24
243 243 244 245 242 243 241 237 235 236 238 241 243 247 249 249 248 248 249 250 251 253 254 257 259 261 268 268 271 274 278 290 289 279 274 284 306 315 327 346 341 344 347 7 356 13 24
242 242 242 241 242 243 244 245 243 237 239 240 242 243 246 247 250 250 250 250 250 249 252 254 259 258 264 266 265 273 275 282 289 278 266 275 283 288 312 323 340 323 341 357 344 355 18
241 242 242 242 242 241 242 243 243 243 239 239 241 243 243 245 248 248 249 250 251 250 252 251 253 251 256 255 264 269 272 273 280 276 265 263 274 275 287 304 306 288 322 342 349 336 17
239 241 242 242 242 242 242 241 243 241 242 240 239 239 242 246 246 246 247 251 251 249 249 250 251 252 253 249 251 260 266 275 274 278 257 256 270 270 277 294 291 293 292 325 336 329 339
236 238 239 240 242 241 240 241 240 240 241 239 239 238 236 240 244 246 246 249 250 249 250 249 252 249 250 250 254 260 265 272 274 271 262 256 258 266 280 260 281 307 301 307 287 292 232
239 238 237 238 238 239 241 240 241 240 238 240 238 240 238 235 238 242 244 245 246 249 247 247 251 249 250 249 251 255 264 268 261 262 261 261 259 259 269 254 276 293 305 285 289 251 269
240 242 241 240 239 237 237 239 240 240 240 238 240 239 240 241 234 236 238 240 244 248 249 248 249 248 248 250 249 254 259 259 260 259 264 263 256 255 262 263 262 278 286 269 289 268 260
239 240 241 241 241 239 238 236 236 239 240 240 239 239 239 239 242 240 235 237 239 242 245 245 247 247 244 244 248 251 253 255 257 256 254 261 257 254 252 260 253 267 279 273 288 264 244
240 241 241 239 242 242 241 239 237 235 236 240 240 239 238 239 238 240 240 233 236 237 239 242 243 246 246 249 249 247 248 249 249 252 255 257 256 250 248 252 255 264 270 266 250 266 240
240 241 240 243 244 242 243 242 239 235 233 234 239 239 236 238 237 234 237 237 233 236 237 239 240 241 243 245 246 248 244 242 247 249 250 254 253 251 245 248 253 251 259 250 249 256 256
240 241 241 243 242 243 243 242 242 239 237 235 233 237 238 235 239 235 232 235 235 232 233 232 232 236 239 240 241 239 240 242 241 240 244 250 250 249 243 243 251 251 251 250 246 251 251
240 241 241 241 242 242 241 243 243 239 239 237 234 232 234 237 236 238 232 230 230 229 229 229 232 236 239 240 243 241 238 235 233 234 239 244 243 242 241 242 245 254 251 259 248 250 253
239 240 241 242 243 242 242 244 243 242 240 236 236 233 229 232 235 236 237 231 226 225 229 227 228 232 232 238 238 237 235 232 232 233 234 237 238 240 238 241 240 241 253 255 259 262 254
240 240 240 240 242 242 242 243 242 242 240 237 235 233 231 229 231 234 235 234 225 223 228 228 226 225 228 231 235 238 239 239 237 237 237 235 239 238 238 241 242 244 245 255 264 276 274
241 241 241 242 242 242 243 242 241 241 241 236 234 233 230 229 227 231 232 232 228 222 225 226 227 224 226 230 233 236 238 239 239 238 239 239 238 243 238 243 247 246 247 246 251 260 267
241 242 242 242 242 243 243 242 242 240 240 238 235 230 231 230 228 227 228 229 227 223 225 223 225 224 221 225 228 232 238 241 239 238 240 241 242 242 241 245 248 249 249 248 249 250 254
242 242 241 242 242 242 242 239 239 238 237 237 236 232 229 231 230 226 225 224 227 225 223 223 223 224 223 225 229 232 235 238 240 237 235 237 242 242 249 243 249 248 252 254 254 252 254
242 241 242 242 242 243 243 242 240 238 235 235 234 231 229 230 230 226 222 222 225 225 222 223 221 223 224 225 230 234 236 237 240 241 243 238 239 243 244 251 244 246 251 255 253 254 256
243 242 242 242 242 242 242 241 241 238 237 235 232 230 228 229 225 226 222 218 222 224 222 224 222 223 224 225 229 233 235 238 241 244 245 246 247 241 245 244 245 250 251 255 255 257 258
241 239 241 241 240 240 239 240 239 236 235 232 230 227 227 227 223 224 223 218 220 223 222 222 223 223 223 224 227 231 233 238 241 243 246 248 249 245 244 245 247 251 255 256 259 259 259
239 239 240 240 239 237 237 233 234 232 228 224 221 221 220 221 219 221 219 216 217 219 221 222 223 222 223 224 226 229 232 235 239 243 247 247 249 250 250 247 250 256 259 258 261 265 266
237 238 236 237 236 233 231 228 228 224 220 215 216 218 216 217 216 218 214 212 213 216 219 219 222 223 224 224 225 227 231 234 236 243 249 253 252 255 256 257 255 256 256 263 265 268 271
234 235 236 234 233 231 228 227 226 218 214 213 213 215 212 213 213 213 213 207 209 212 216 218 221 221 223 225 225 229 232 234 236 240 247 251 254 255 257 259 261 263 266 269 270 272 274
232 232 233 232 230 228 225 222 219 213 213 210 212 212 210 209 209 210 209 204 205 207 209 215 218 220 222 224 226 229 234 235 235 236 242 244 251 256 259 261 262 263 267 270 274 277 280
230 229 229 228 227 225 223 221 217 212 209 209 210 210 208 206 207 207 207 206 204 207 209 215 217 218 219 223 226 230 234 236 235 236 238 239 245 251 256 261 264 269 270 274 275 279 281
229 227 226 225 224 221 219 218 215 210 207 207 208 207 204 203 205 205 205 204 203 206 207 211 216 216 217 220 223 228 232 234 235 239 240 241 240 245 251 256 262 265 269 273 277 279 281
228 226 225 223 221 218 216 214 212 209 206 205 206 206 203 201 203 203 202 203 202 203 206 210 215 215 215 219 222 226 229 232 235 240 243 246 246 247 253 256 260 264 270 277 278 281 285
222 221 220 219 217 215 213 212 210 208 206 205 205 204 201 201 202 202 201 202 201 202 205 208 213 212 211 217 221 223 226 231 236 241 243 248 249 251 255 259 265 271 275 278 281 286 295
Height
10711 10717 10722 10728 10734 10738 10743 10750 10756 10762 10769 10775 10782 10791 10798 10804 10812 10819 10827 10833 10838 10842 10845 10851 10857 10861 10863 10864 10866 10867 10868 10868 10868 10868 10866 10866 10865 10862 10860 10858 10856 10854 10850 10846 10842 10838 10832
10698 10702 10708 10714 10721 10724 10730 10737 10742 10748 10754 10760 10769 10776 10783 10789 10798 10806 10814 10822 10828 10832 10836 10842 10848 10854 10857 10858 10860 10862 10863 10864 10865 10864 10862 10863 10862 10860 10858 10856 10854 10852 10849 10846 10842 10837 10831
10685 10689 10694 10699 10705 10712 10717 10724 10730 10735 10740 10746 10754 10761 10768 10776 10783 10792 10800 10808 10816 10820 10827 10833 10838 10846 10848 10850 10852 10857 10858 10859 10860 10859 10859 10857 10857 10857 10855 10853 10852 10850 10848 10844 10841 10837 10832
10669 10676 10681 10687 10693 10698 10704 10711 10717 10722 10728 10734 10740 10746 10754 10761 10769 10775 10785 10793 10803 10809 10815 10823 10828 10836 10839 10843 10844 10850 10849 10853 10855 10855 10854 10853 10853 10852 10851 10850 10848 10848 10846 10842 10838 10834 10831
10652 10660 10666 10673 10680 10686 10690 10696 10703 10708 10715 10722 10728 10732 10738 10745 10754 10761 10769 10779 10788 10796 10803 10810 10817 10825 10830 10834 10837 10839 10842 10845 10848 10849 10849 10849 10849 10849 10847 10846 10845 10844 10842 10840 10836 10831 10828
10634 10641 10649 10657 10665 10672 10679 10684 10690 10696 10702 10709 10715 10721 10726 10733 10738 10747 10753 10765 10773 10782 10791 10798 10806 10813 10818 10823 10827 10828 10835 10837 10840 10842 10843 10842 10842 10844 10843 10840 10839 10839 10838 10835 10833 10830 10826
10614 10622 10630 10638 10648 10656 10663 10670 10677 10684 10689 10696 10701 10708 10715 10720 10727 10733 10742 10749 10758 10766 10775 10784 10792 10800 10806 10813 10817 10819 10825 10829 10829 10833 10835 10836 10837 10836 10838 10834 10833 10832 10833 10830 10829 10827 10824
10592 10601 10610 10620 10629 10637 10647 10655 10663 10670 10676 10682 10687 10694 10701 10710 10717 10722 10728 10735 10744 10752 10761 10770 10778 10787 10794 10801 10806 10810 10813 10819 10821 10822 10826 10829 10829 10829 10830 10830 10828 10827 10827 10827 10825 10823 10821
10570 10579 10589 10599 10609 10619 10629 10638 10647 10655 10663 10668 10676 10681 10688 10695 10704 10713 10717 10723 10730 10739 10748 10755 10765 10774 10781 10788 10793 10798 10803 10806 10810 10811 10817 10819 10821 10821 10824 10823 10822 10823 10822 10821 10819 10819 10817
10549 10559 10568 10578 10588 10598 10609 10619 10629 10638 10647 10653 10661 10670 10676 10682 10690 10699 10708 10714 10718 10727 10736 10743 10752 10760 10768 10774 10780 10785 10790 10796 10797 10798 10806 10809 10811 10811 10814 10814 10814 10816 10816 10817 10816 10814 10812
10522 10534 10544 10556 10566 10577 10588 10598 10609 10619 10629 10639 10645 10655 10663 10671 10677 10685 10694 10704 10710 10717 10728 10733 10739 10745 10752 10760 10765 10771 10777 10784 10786 10787 10794 10799 10802 10801 10805 10807 10807 10808 10810 10810 10810 10809 10808
10494 10507 10519 10531 10542 10554 10565 10576 10588 10599 10610 10620 10631 10640 10649 10658 10665 10672 10680 10690 10701 10711 10718 10723 10725 10732 10739 10745 10752 10759 10764 10771 10775 10778 10780 10785 10790 10793 10794 10797 10798 10800 10802 10803 10804 10803 10803
10464 10478 10491 10502 10514 10528 10541 10553 10566 10578 10590 10601 10614 10624 10634 10642 10652 10660 10667 10677 10691 10707 10706 10711 10714 10721 10728 10734 10741 10746 10752 10758 10761 10765 10769 10771 10778 10781 10785 10787 10789 10792 10795 10797 10796 10795 10794
10435 10448 10461 10474 10487 10502 10515 10529 10543 10555 10568 10581 10594 10608 10619 10625 10637 10646 10656 10666 10683 10694 10695 10699 10705 10711 10717 10724 10729 10734 10740 10745 10748 10752 10757 10761 10767 10771 10775 10778 10780 10782 10785 10788 10788 10788 10786
10402 10417 10431 10446 10458 10473 10488 10502 10517 10530 10545 10560 10573 10587 10601 10607 10620 10630 10642 10658 10673 10680 10683 10690 10697 10702 10707 10713 10719 10724 10729 10734 10739 10744 10749 10752 10757 10760 10766 10770 10773 10773 10776 10778 10782 10782 10781
10373 10387 10401 10415 10429 10443 10460 10475 10489 10503 10518 10535 10549 10564 10580 10589 10601 10613 10629 10649 10660 10666 10671 10679 10688 10693 10699 10705 10710 10715 10720 10724 10728 10735 10739 10743 10748 10752 10757 10761 10762 10765 10766 10768 10771 10773 10773
10345 10358 10371 10383 10398 10414 10430 10446 10460 10475 10492 10507 10520 10541 10558 10568 10581 10592 10616 10637 10644 10650 10658 10668 10678 10683 10689 10695 10701 10707 10711 10714 10720 10725 10730 10734 10738 10741 10746 10750 10752 10756 10756 10758 10761 10764 10763
10319 10329 10343 10355 10369 10383 10397 10416 10430 10445 10463 10475 10491 10516 10538 10545 10556 10577 10608 10621 10628 10638 10647 10657 10666 10672 10680 10687 10692 10698 10703 10707 10710 10714 10719 10723 10726 10730 10736 10737 10742 10744 10745 10747 10750 10752 10755
10291 10303 10315 10328 10341 10355 10368 10386 10401 10416 10430 10447 10465 10490 10507 10519 10538 10566 10590 10604 10612 10626 10636 10645 10654 10662 10670 10678 10683 10688 10694 10699 10702 10706 10710 10712 10716 10719 10723 10726 10728 10730 10732 10735 10738 10740 10742
10265 10277 10289 10301 10314 10327 10342 10357 10372 10385 10401 10419 10439 10460 10482 10493 10527 10548 10572 10588 10598 10612 10625 10633 10643 10651 10659 10667 10673 10679 10684 10689 10694 10697 10701 10704 10706 10709 10713 10717 10718 10721 10722 10725 10726 10728 10729
10240 10252 10261 10275 10286 10300 10314 10327 10343 10355 10372 10393 10415 10440 10461 10479 10511 10532 10550 10573 10585 10600 10613 10622 10633 10640 10648 10656 10662 10668 10674 10680 10685 10688 10691 10695 10697 10699 10702 10705 10708 10710 10712 10714 10716 10717 10721
10216 10227 10239 10251 10264 10276 10290 10301 10314 10330 10347 10372 10394 10413 10436 10461 10484 10501 10529 10554 10571 10585 10601 10612 10620 10624 10635 10644 10651 10660 10667 10671 10675 10678 10682 10685 10687 10690 10693 10697 10700 10702 10701 10702 10704 10707 10708
10197 10207 10219 10230 10242 10254 10268 10281 10293 10309 10332 10352 10371 10390 10414 10437 10457 10480 10517 10542 10560 10570 10585 10594 10601 10615 10625 10633 10644 10650 10657 10663 10666 10670 10672 10675 10678 10682 10683 10687 10691 10690 10690 10693 10694 10694 10695
10179 10188 10199 10211 10223 10235 10249 10261 10273 10295 10315 10332 10348 10364 10388 10410 10434 10471 10501 10523 10536 10553 10569 10579 10591 10604 10615 10626 10634 10641 10648 10652 10656 10661 10665 10667 10670 10673 10674 10677 10678 10680 10682 10683 10682 10681 10682
10162 10171 10181 10193 10204 10216 10230 10244 10258 10278 10295 10314 10327 10345 10371 10397 10428 10448 10478 10497 10512 10530 10548 10564 10579 10591 10606 10616 10624 10631 10637 10643 10649 10653 10655 10660 10662 10664 10666 10669 10668 10672 10673 10672 10671 10670 10670
10145 10155 10166 10176 10187 10200 10214 10227 10244 10262 10279 10295 10313 10333 10360 10389 10410 10436 10457 10479 10501 10522 10536 10553 10566 10580 10596 10606 10616 10623 10628 10633 10641 10642 10648 10652 10655 10658 10659 10659 10660 10664 10663 10663 10662 10660 10657
10129 10141 10151 10161 10173 10186 10200 10213 10229 10247 10265 10281 10299 10324 10349 10376 10395 10417 10445 10465 10490 10507 10526 10539 10550 10570 10585 10596 10604 10610 10618 10626 10630 10634 10641 10644 10647 10649 10651 10652 10653 10655 10654 10653 10652 10650 10647
10114 10124 10134 10146 10159 10172 10186 10200 10216 10234 10251 10269 10291 10315 10341 10365 10380 10409 10431 10453 10477 10498 10513 10528 10540 10561 10575 10584 10593 10599 10606 10615 10619 10624 10631 10636 10638 10642 10644 10645 10646 10646 10645 10644 10643 10641 10638
10098 10108 10120 10132 10144 10158 10172 10187 10203 10219 10240 10259 10281 10305 10326 10345 10370 10395 10423 10449 10475 10485 10495 10512 10530 10549 10560 10569 10579 10587 10596 10604 10610 10616 10622 10626 10630 10633 10636 10637 10638 10635 10635 10634 10634 10631 10630